Location: Clarion
(42.7316°N, 93.7330°W)
Time: 09:53:16
(UTC+00:00)

Cosmos 1655 Rocket - Pass Details

Date: 22 April 2026
Orbit: 969 x 1006 km, 83.0° (Epoch: 17 May)

Event Time Altitude Azimuth Distance (km) Brightness Sun altitude
Rises 08:43:31 0° 355° (N) 3,679 7.6 -25.2°
Reaches altitude 10° 08:46:06 10° 360° (N) 2,724 6.9 -24.9°
Maximum altitude 08:52:14 58° 79° (ENE) 1,126 4.5 -24.1°
Enters shadow 08:58:05 11° 157° (SSE) 2,619 6.0 -23.4°
